Location: Unspecified
(49.8670°N, 0.0000°E)
Time: 01:53:09
(UTC+00:00)

Altair - All Passes

Search period start: 18 June 2019 00:00
Search period end: 28 June 2019 00:00
Orbit: 1501 x 1683 km, 47.2° (Epoch: 16 June)

Date Brightness Start Highest point End Pass type
(mag) Time Alt. Az. Time Alt. Az. Time Alt. Az.
18 Jun - 00:42:07 10° W 00:52:00 75° S 01:02:08 10° ESE visible
18 Jun - 02:46:49 10° WNW 02:56:11 46° SSW 03:05:39 10° SE visible
18 Jun - 04:53:17 10° W 04:59:03 17° SW 05:04:52 10° SSW daylight
18 Jun - 18:13:38 10° SE 18:16:00 11° ESE 18:18:21 10° ESE daylight
18 Jun - 20:09:50 10° SSW 20:18:22 38° SE 20:27:13 10° ENE daylight
18 Jun - 22:12:34 10° WSW 22:22:11 70° SSE 22:32:11 10° E visible
19 Jun - 00:16:56 10° W 00:26:49 76° S 00:36:57 10° ESE visible
19 Jun - 02:21:37 10° WNW 02:31:03 49° SSW 02:40:38 10° SE visible
19 Jun - 04:27:44 10° W 04:34:03 19° SW 04:40:23 10° SSW daylight
19 Jun - 19:44:57 10° SSW 19:53:18 36° SE 20:01:57 10° ENE daylight
19 Jun - 21:47:27 10° WSW 21:57:01 68° SSE 22:06:58 10° E visible
19 Jun - 23:51:46 10° W 00:01:37 76° S 00:11:45 10° ESE visible
20 Jun - 01:56:25 10° WNW 02:05:55 51° SSW 02:15:35 10° SE visible
20 Jun - 04:02:16 10° W 04:09:01 21° SW 04:15:49 10° S daylight
20 Jun - 19:20:06 10° SSW 19:28:15 34° SE 19:36:40 10° E daylight
20 Jun - 21:22:22 10° WSW 21:31:52 66° SSE 21:41:45 10° E visible
20 Jun - 23:26:37 10° W 23:36:26 77° S 23:46:32 10° ESE visible
21 Jun - 01:31:14 10° WNW 01:40:47 54° SSW 01:50:31 10° SE visible
21 Jun - 03:36:51 10° W 03:43:59 22° SW 03:51:11 10° S daylight
21 Jun - 18:55:16 10° SSW 19:03:12 31° SE 19:11:21 10° E daylight
21 Jun - 20:57:17 10° WSW 21:06:43 64° SSE 21:16:31 10° E visible
21 Jun - 23:01:27 10° W 23:11:14 78° S 23:21:19 10° E visible
22 Jun - 01:06:03 10° W 01:15:39 56° SSW 01:25:26 10° SE visible
22 Jun - 03:11:29 10° W 03:18:57 24° SW 03:26:28 10° S daylight
22 Jun - 18:30:29 10° S 18:38:10 29° SE 18:46:03 10° E daylight
22 Jun - 20:32:13 10° SW 20:41:34 62° SSE 20:51:18 10° E daylight
22 Jun - 22:36:18 10° W 22:46:02 78° S 22:56:08 10° E visible
23 Jun - 00:40:52 10° W 00:50:29 58° SSW 01:00:20 10° SE visible
23 Jun - 02:46:08 10° W 02:53:53 26° SW 03:01:43 10° S visible
23 Jun - 18:05:44 10° S 18:13:07 27° SE 18:20:43 10° E daylight
23 Jun - 20:07:09 10° SW 20:16:26 60° SSE 20:26:06 10° E daylight
23 Jun - 22:11:10 10° W 22:20:51 78° S 22:30:55 10° E visible
24 Jun - 00:15:42 10° W 00:25:20 61° SSW 00:35:13 10° SE visible
24 Jun - 02:20:50 10° W 02:28:50 28° SW 02:36:57 10° S visible
24 Jun - 17:41:01 10° S 17:48:06 25° SE 17:55:22 10° E daylight
24 Jun - 19:42:06 10° SW 19:51:18 57° SSE 20:00:52 10° E daylight
24 Jun - 21:46:01 10° W 21:55:40 78° S 22:05:42 10° E visible
24 Jun - 23:50:32 10° W 00:00:10 63° SSW 00:10:05 10° SE visible
25 Jun - 01:55:33 10° W 02:03:46 30° SW 02:12:07 10° SSE visible
25 Jun - 17:16:21 10° S 17:23:05 23° SE 17:29:59 10° E daylight
25 Jun - 19:17:05 10° SW 19:26:11 55° SSE 19:35:39 10° E daylight
25 Jun - 21:20:52 10° W 21:30:29 77° S 21:40:28 10° E visible
25 Jun - 23:25:22 10° W 23:35:01 65° SSW 23:44:57 10° ESE visible
26 Jun - 01:30:17 10° W 01:38:42 33° SW 01:47:15 10° SSE visible
26 Jun - 16:51:45 10° S 16:58:05 21° SE 17:04:34 10° E daylight
26 Jun - 18:52:04 10° SW 19:01:04 52° SSE 19:10:26 10° ENE daylight
26 Jun - 20:55:44 10° WSW 21:05:18 77° S 21:15:15 10° E visible
26 Jun - 23:00:13 10° W 23:09:51 67° SSW 23:19:48 10° ESE visible
27 Jun - 01:05:03 10° W 01:13:37 35° SW 01:22:21 10° SSE visible
27 Jun - 16:27:13 10° SSE 16:33:06 19° SE 16:39:06 10° E daylight
27 Jun - 18:27:04 10° SW 18:35:58 50° SSE 18:45:12 10° ENE daylight
27 Jun - 20:30:36 10° WSW 20:40:07 76° S 20:50:03 10° E daylight
27 Jun - 22:35:04 10° W 22:44:41 69° SSW 22:54:38 10° ESE visible
